Colby, KS

5:56 AM CST on February 13, 2016 (GMT -0600)
Shaltz

Weather History for KCBK - April, 2014

Change the Weather History Date:

Wednesday, April 9, 2014

  Actual Average (KGLD) Record (KGLD)
Temperature  
Mean Temperature 60 °F 47 °F  
Max Temperature 86 °F 62 °F 90 °F (1930)
Min Temperature 33 °F 32 °F 8 °F (1989)
Degree Days  
Heating Degree Days 6 18  
Month to date heating degree days 172  
Since 1 July heating degree days 5347  
Cooling Degree Days 0 0  
Month to date cooling degree days 0  
Year to date cooling degree days 0  
Growing Degree Days 10 (Base 50)    
Moisture  
Dew Point 33 °F    
Average Humidity 42    
Maximum Humidity 93    
Minimum Humidity 14    
Precipitation  
Precipitation 0.00 in 0.05 in 1.61 in (1994)
Month to date precipitation 0.39  
Year to date precipitation 2.33  
Snow  
Snow 0.00 in 0.20 in - ()
Month to date snowfall 1.9  
Since 1 July snowfall 32.7  
Snow Depth -    
Sea Level Pressure  
Sea Level Pressure 29.91 in    
Wind  
Wind Speed 12 mph (WSW)    
Max Wind Speed 23 mph    
Max Gust Speed 30 mph    
Visibility 10 miles    
Events      
T = Trace of Precipitation, MM = Missing Value Source: NWS Daily Summary

Daily Weather History Graph

Daily Weather History Graph

Search for Another Location

Airport or City:

Trip Planner

Search our weather history database for the weather conditions in past years. The results will help you decide how hot, cold, wet, or windy it might be!

Date:

Astronomy

Apr. 09, 2014 Rise Set
Actual Time 7:16 AM CDT 8:16 PM CDT
Civil Twilight 6:48 AM CDT 8:43 PM CDT
Nautical Twilight 6:15 AM CDT 9:16 PM CDT
Astronomical Twilight 5:42 AM CDT 9:50 PM CDT
Moon 3:07 PM CDT (4/9) 4:04 AM CDT (4/9)
Length of Visible Light 13h 55m
Length of Day
13h 00m
Waxing Gibbous, 72% of the Moon is Illuminated
Apr 9
Waxing Gibbous
Apr 15
Full
Apr 22
Last Quarter
Apr 29
New
May 6
First Quarter

Hourly Weather History & Observations

Time (CDT) Temp. Windchill Dew Point Humidity Pressure Visibility Wind Dir Wind Speed Gust Speed Precip Events Conditions
12:10 AM 50.0 °F - 32.0 °F 50% 30.08 in 10.0 mi South 9.2 mph - N/A   Clear
12:30 AM 50.0 °F - 32.0 °F 50% 30.08 in 10.0 mi South 10.4 mph 16.1 mph N/A   Clear
12:50 AM 46.4 °F 41.1 °F 32.0 °F 57% 30.08 in 10.0 mi SSW 11.5 mph 16.1 mph N/A   Clear
1:10 AM 44.6 °F 40.2 °F 32.0 °F 61% 30.07 in 10.0 mi SSW 8.1 mph - N/A   Clear
1:30 AM 44.6 °F 39.2 °F 32.0 °F 61% 30.07 in 10.0 mi SSW 10.4 mph - N/A   Clear
1:50 AM 44.6 °F 39.7 °F 32.0 °F 61% 30.07 in 10.0 mi SSW 9.2 mph - N/A   Clear
2:10 AM 44.6 °F 38.8 °F 32.0 °F 61% 30.07 in 10.0 mi South 11.5 mph - N/A   Clear
2:30 AM 44.6 °F 38.4 °F 32.0 °F 61% 30.06 in 10.0 mi South 12.7 mph 17.3 mph N/A   Clear
2:50 AM 46.4 °F 41.5 °F 32.0 °F 57% 30.05 in 10.0 mi South 10.4 mph - N/A   Clear
3:10 AM 46.4 °F 41.1 °F 32.0 °F 57% 30.04 in 10.0 mi South 11.5 mph - N/A   Clear
3:30 AM 44.6 °F 39.2 °F 32.0 °F 61% 30.03 in 10.0 mi SSW 10.4 mph - N/A   Clear
3:50 AM 42.8 °F 36.6 °F 32.0 °F 66% 30.02 in 10.0 mi South 11.5 mph - N/A   Clear
4:10 AM 42.8 °F 37.5 °F 33.8 °F 70% 30.01 in 10.0 mi South 9.2 mph - N/A   Clear
4:30 AM 41.0 °F 35.8 °F 33.8 °F 76% 30.01 in 10.0 mi SSW 8.1 mph - N/A   Clear
4:50 AM 37.4 °F 32.8 °F 32.0 °F 81% 30.01 in 10.0 mi SW 5.8 mph - N/A   Clear
5:10 AM 37.4 °F 32.1 °F 32.0 °F 81% 30.00 in 10.0 mi SW 6.9 mph - N/A   Clear
5:30 AM 35.6 °F 29.9 °F 32.0 °F 87% 29.99 in 10.0 mi SSW 6.9 mph - N/A   Clear
5:50 AM 33.8 °F 26.4 °F 32.0 °F 93% 29.98 in 10.0 mi SSW 9.2 mph - N/A   Clear
6:10 AM 33.8 °F 26.4 °F 32.0 °F 93% 29.98 in 10.0 mi WSW 9.2 mph - N/A   Clear
6:30 AM 33.8 °F 26.4 °F 32.0 °F 93% 29.98 in 10.0 mi WSW 9.2 mph - N/A   Clear
6:50 AM 33.8 °F 25.8 °F 32.0 °F 93% 29.98 in 10.0 mi West 10.4 mph - N/A   Clear
7:10 AM 37.4 °F 31.4 °F 32.0 °F 81% 29.98 in 10.0 mi West 8.1 mph - N/A   Clear
7:30 AM 42.8 °F 36.6 °F 33.8 °F 70% 29.97 in 10.0 mi West 11.5 mph - N/A   Clear
7:50 AM 46.4 °F 40.7 °F 33.8 °F 62% 29.98 in 10.0 mi West 12.7 mph - N/A   Clear
8:15 AM 50.0 °F - 33.8 °F 54% 29.98 in 10.0 mi West 13.8 mph - N/A   Clear
8:30 AM 51.8 °F - 33.8 °F 50% 29.98 in 10.0 mi West 13.8 mph - N/A   Clear
8:50 AM 53.6 °F - 35.6 °F 51% 29.98 in 10.0 mi West 13.8 mph - N/A   Clear
9:10 AM 57.2 °F - 35.6 °F 44% 29.98 in 10.0 mi West 16.1 mph 20.7 mph N/A   Clear
9:30 AM 60.8 °F - 35.6 °F 39% 29.98 in 10.0 mi West 15.0 mph - N/A   Clear
9:50 AM 64.4 °F - 37.4 °F 37% 29.97 in 10.0 mi West 15.0 mph - N/A   Clear
10:10 AM 69.8 °F - 35.6 °F 28% 29.97 in 10.0 mi West 17.3 mph - N/A   Clear
10:30 AM 71.6 °F - 35.6 °F 27% 29.96 in 10.0 mi West 18.4 mph - N/A   Clear
10:50 AM 73.4 °F - 35.6 °F 25% 29.96 in 10.0 mi West 19.6 mph 25.3 mph N/A   Clear
11:10 AM 77.0 °F - 33.8 °F 21% 29.96 in 10.0 mi WNW 21.9 mph 29.9 mph N/A   Clear
11:30 AM 77.0 °F - 35.6 °F 22% 29.96 in 10.0 mi WNW 21.9 mph - N/A   Clear
11:50 AM 77.0 °F - 33.8 °F 21% 29.95 in 10.0 mi NW 20.7 mph 28.8 mph N/A   Clear
12:10 PM 78.8 °F - 33.8 °F 20% 29.95 in 10.0 mi WNW 16.1 mph 24.2 mph N/A   Clear
12:30 PM 78.8 °F - 35.6 °F 21% 29.94 in 10.0 mi WNW 13.8 mph 24.2 mph N/A   Clear
12:50 PM 78.8 °F - 33.8 °F 20% 29.93 in 10.0 mi WSW 12.7 mph 21.9 mph N/A   Clear
1:10 PM 80.6 °F - 35.6 °F 20% 29.92 in 10.0 mi WSW 17.3 mph 24.2 mph N/A   Clear
1:30 PM 80.6 °F - 35.6 °F 20% 29.91 in 10.0 mi WSW 11.5 mph 25.3 mph N/A   Clear
1:50 PM 80.6 °F - 33.8 °F 18% 29.90 in 10.0 mi WSW 17.3 mph 24.2 mph N/A   Clear
2:10 PM 82.4 °F - 33.8 °F 17% 29.89 in 10.0 mi West 18.4 mph 28.8 mph N/A   Clear
2:30 PM 84.2 °F - 33.8 °F 16% 29.88 in 10.0 mi WSW 16.1 mph 25.3 mph N/A   Clear
2:50 PM 82.4 °F - 33.8 °F 17% 29.87 in 10.0 mi SW 16.1 mph 26.5 mph N/A   Clear
3:10 PM 86.0 °F - 33.8 °F 15% 29.86 in 10.0 mi West 20.7 mph 25.3 mph N/A   Clear
3:30 PM 84.2 °F - 33.8 °F 16% 29.84 in 10.0 mi WSW 23.0 mph 26.5 mph N/A   Clear
3:50 PM 86.0 °F - 33.8 °F 15% 29.83 in 10.0 mi SW 20.7 mph 25.3 mph N/A   Clear
4:10 PM 82.4 °F - 32.0 °F 16% 29.82 in 10.0 mi WSW 12.7 mph 26.5 mph N/A   Clear
4:30 PM 86.0 °F - 32.0 °F 14% 29.81 in 10.0 mi SW 17.3 mph 25.3 mph N/A   Clear
4:50 PM 86.0 °F - 32.0 °F 14% 29.80 in 10.0 mi WSW 12.7 mph 29.9 mph N/A   Clear
5:10 PM 84.2 °F - 32.0 °F 15% 29.79 in 10.0 mi SW 18.4 mph 28.8 mph N/A   Clear
5:30 PM 82.4 °F - 32.0 °F 16% 29.79 in 10.0 mi SSW 15.0 mph - N/A   Clear
5:50 PM 82.4 °F - 32.0 °F 16% 29.79 in 10.0 mi SW 19.6 mph 27.6 mph N/A   Clear
6:10 PM 80.6 °F - 32.0 °F 17% 29.79 in 10.0 mi SW 17.3 mph - N/A   Clear
6:30 PM 80.6 °F - 32.0 °F 17% 29.79 in 10.0 mi SSW 15.0 mph - N/A   Clear
6:50 PM 78.8 °F - 32.0 °F 18% 29.79 in 10.0 mi SW 10.4 mph - N/A   Clear
7:10 PM 77.0 °F - 32.0 °F 19% 29.79 in 10.0 mi WSW 8.1 mph - N/A   Clear
7:30 PM 71.6 °F - 32.0 °F 23% 29.79 in 10.0 mi WSW 10.4 mph - N/A   Clear
7:50 PM 69.8 °F - 32.0 °F 25% 29.78 in 10.0 mi WSW 8.1 mph - N/A   Clear
8:10 PM 66.2 °F - 32.0 °F 28% 29.77 in 10.0 mi WSW 11.5 mph - N/A   Clear
8:30 PM 64.4 °F - 32.0 °F 30% 29.77 in 10.0 mi SW 8.1 mph - N/A   Clear
8:50 PM 60.8 °F - 32.0 °F 34% 29.77 in 10.0 mi SW 9.2 mph - N/A   Clear
9:10 PM 55.4 °F - 30.2 °F 38% 29.78 in 10.0 mi SW 9.2 mph - N/A   Clear
9:30 PM 55.4 °F - 30.2 °F 38% 29.78 in 10.0 mi SW 10.4 mph - N/A   Clear
9:50 PM 53.6 °F - 30.2 °F 41% 29.79 in 10.0 mi WSW 6.9 mph - N/A   Clear
10:10 PM 51.8 °F - 30.2 °F 44% 29.79 in 10.0 mi WSW 8.1 mph - N/A   Clear
10:30 PM 50.0 °F - 30.2 °F 47% 29.79 in 10.0 mi WSW 8.1 mph - N/A   Clear
10:50 PM 51.8 °F - 30.2 °F 44% 29.78 in 10.0 mi WSW 8.1 mph - N/A   Clear
11:10 PM 51.8 °F - 30.2 °F 44% 29.77 in 10.0 mi WSW 9.2 mph - N/A   Clear
11:30 PM 51.8 °F - 30.2 °F 44% 29.77 in 10.0 mi WSW 8.1 mph - N/A   Clear
11:50 PM 51.8 °F - 30.2 °F 44% 29.77 in 10.0 mi WSW 6.9 mph - N/A   Clear